Weather in Rozpasiivka

Ukraine / Luhansk Region     49°49′55″N   38°23′21″E
temp.,
°C
wind,
m/s
gust,
m/s
humid.,
%
clouds,
%
prec.,
mm/h
press.,
hPa
HPBL,
m
13 may, thu
thu1300:00+9ese4889100 0.2 1015204
03:00+9e2398100 9.0 101588
06:00+10ese3697100 2.8 1014227
09:00+14sse4682100 3.6 1014678
12:00+16s4673100 0.3 10141084
15:00+18s356640 0.4 10141054
18:00+19se2371100 1.1 1014297
21:00+15ese3482100 1.2 101448
14 may, fri
fri1400:00+14se348780 0.0 101464
03:00+13ese4692100 0.0 101492
06:00+13e4991100 0.0 1014199
09:00+19se61174100 0.0 1014525
12:00+22sse6958100 0.0 10141052
15:00+24ese6961100 0.0 1011848
18:00+23se596695 0.0 1010424
21:00+18se4118493 0.0 1010190
15 may, sat
sat1500:00+17s37915 0.0 1011123
03:00+14sw33894 0.0 101228
06:00+15sw3484100 0.0 101395
09:00+19wsw34677 0.0 1013394
12:00+23sw4548100 0.0 10141279
15:00+24sw45485 0.0 10141786
18:00+23sw34585 0.0 1014327
21:00+17w117012 0.0 101411
16 may, sun
sun1600:00+16nnw1171100 0.0 101411
03:00+15ene1273100 0.0 101511
06:00+15ene3680100 0.0 1014113
09:00+21ene466365 0.0 1014469
12:00+24ne565550 0.0 10131212
15:00+26ne665674 0.0 10121732
18:00+24e3662100 0.0 1011191
21:00+19ene467090 0.0 101071
17 may, mon
mon1700:00+17ene4973100 0.0 1010133
03:00+16e4872100 0.0 1009112
06:00+16e41173100 0.0 1010183
09:00+21ese6125543 0.0 1010462
12:00+26ese813432 0.0 10081370
15:00+27se813465 0.0 10082072
18:00+25se5105729 0.0 1008384
21:00+19ese456951 0.0 100864